FW6934 Weather Reports


time (UTC)temp
C
wind
direction
speed
KPH
gust
KPH
rain 1hr
cm
rain 24hr
cm
rain mn
cm
humidity
%
barometer
mb
20260502164057 11 315 1.6 4.8 0.00 0.00 0.00 81 1004.0
20260502163545 11 315 0.0 4.8 0.00 0.00 0.00 80 1004.1
20260502163009 11 278 0.0 4.8 0.00 0.00 0.00 79 1004.1
20260502162558 11 278 0.0 4.8 0.00 0.00 0.00 79 1004.1
20260502162046 11 360 1.6 6.4 0.00 0.00 0.00 80 1004.0
20260502161507 11 302 1.6 6.4 0.00 0.00 0.00 80 1003.9
20260502161058 11 298 3.2 6.4 0.00 0.00 0.00 80 1004.0
20260502160546 11 360 1.6 6.4 0.00 0.00 0.00 80 1004.0
20260502152048 10 333 0.0 0.0 0.00 0.00 0.00 83 1004.1
20260502151514 10 332 0.0 1.6 0.00 0.00 0.00 84 1004.1
20260502151003 10 338 0.0 4.8 0.00 0.00 0.00 84 1003.9
20260502150553 10 338 0.0 4.8 0.00 0.00 0.00 84 1003.9
20260502130542 8 280 0.0 4.8 0.00 0.00 0.00 84 1003.9
20260502123546 8 250 1.6 4.8 0.00 0.00 0.00 83 1003.9
20260502123008 8 284 1.6 6.4 0.00 0.00 0.00 83 1003.9
20260502122558 8 268 1.6 6.4 0.00 0.00 0.00 82 1003.8
20260502122046 8 271 0.0 3.2 0.00 0.00 0.00 82 1003.7
20260502121511 8 271 0.0 4.8 0.00 0.00 0.00 82 1003.7
20260502121057 8 271 0.0 4.8 0.00 0.00 0.00 82 1003.6
20260502120547 8 271 0.0 4.8 0.00 0.00 0.00 82 1003.6
20260502115551 8 249 1.6 4.8 0.00 0.00 0.00 81 1003.8
20260502115038 8 242 0.0 3.2 0.00 0.00 0.00 81 1003.7
20260502114603 8 242 0.0 3.2 0.00 0.00 0.00 81 1003.8
20260502114050 8 242 0.0 4.8 0.00 0.00 0.00 80 1003.7
20260502113538 8 242 0.0 4.8 0.00 0.00 0.00 80 1003.8
20260502113100 8 253 1.6 4.8 0.00 0.00 0.00 80 1003.7
20260502112547 9 236 0.0 4.8 0.00 0.00 0.00 80 1003.9
20260502112035 9 233 1.6 4.8 0.00 0.00 0.00 80 1003.8
20260502111505 9 220 1.6 4.8 0.00 0.00 0.00 80 1004.1
20260502111055 9 217 0.0 4.8 0.00 0.00 0.00 80 1004.0
20260502110543 9 217 1.6 4.8 0.00 0.00 0.00 79 1004.0
20260502110003 9 302 1.6 6.4 0.00 0.00 0.00 79 1004.0
20260502105556 9 303 1.6 6.4 0.00 0.00 0.00 79 1003.9
20260502105043 9 63 1.6 8.0 0.00 0.00 0.00 79 1003.7
20260502104512 9 205 0.0 3.2 0.00 0.00 0.00 78 1003.9
20260502104103 10 202 1.6 3.2 0.00 0.00 0.00 78 1003.9
20260502103551 10 225 0.0 3.2 0.00 0.00 0.00 78 1003.8
20260502103013 10 225 0.0 3.2 0.00 0.00 0.00 78 1003.9
20260502102602 10 223 0.0 6.4 0.00 0.00 0.00 78 1003.9
20260502102050 10 223 1.6 6.4 0.00 0.00 0.00 78 1003.9
20260502101522 10 323 1.6 4.8 0.00 0.00 0.00 78 1003.9
20260502101009 10 215 1.6 4.8 0.00 0.00 0.00 77 1003.9
20260502100559 10 308 1.6 3.2 0.00 0.00 0.00 77 1003.8
20260502091515 10 235 1.6 3.2 0.00 0.00 0.00 77 1004.8
20260502091003 10 340 0.0 4.8 0.00 0.00 0.00 76 1004.6
20260502090553 10 336 0.0 4.8 0.00 0.00 0.00 76 1004.7
20260502071512 12 240 3.2 8.0 0.00 0.00 0.00 66 1004.6
20260502071103 12 5 0.0 4.8 0.00 0.00 0.00 67 1004.7
20260502070553 12 5 0.0 4.8 0.00 0.00 0.00 66 1004.7
20260502070009 12 42 0.0 3.2 0.00 0.00 0.00 66 1004.7
20260502065601 12 272 0.0 6.4 0.00 0.00 0.00 65 1004.8
20260502065042 12 19 3.2 6.4 0.00 0.00 0.00 66 1004.7
20260502064502 12 41 0.0 3.2 0.00 0.00 0.00 65 1004.6
20260502064053 12 41 0.0 4.8 0.00 0.00 0.00 65 1004.7
20260502063541 12 36 1.6 4.8 0.00 0.00 0.00 65 1004.7
20260502063002 13 33 1.6 8.0 0.00 0.00 0.00 64 1004.8
20260502062553 13 300 1.6 8.0 0.00 0.00 0.00 65 1004.6
20260502062040 13 355 0.0 3.2 0.00 0.00 0.00 66 1004.6
20260502061500 13 355 1.6 3.2 0.00 0.00 0.00 66 1004.6
20260502061050 13 355 0.0 3.2 0.00 0.00 0.00 66 1004.4
20260502060540 13 350 0.0 3.2 0.00 0.00 0.00 65 1004.3
20260502060006 13 350 0.0 3.2 0.00 0.00 0.00 65 1004.4
20260502055558 13 350 0.0 3.2 0.00 0.00 0.00 65 1004.3
20260502055045 13 350 1.6 3.2 0.00 0.00 0.00 65 1004.3
20260502054504 13 350 0.0 4.8 0.00 0.00 0.00 65 1004.3
20260502054057 13 350 0.0 6.4 0.00 0.00 0.00 65 1004.3
20260502053544 13 360 3.2 6.4 0.00 0.00 0.00 64 1004.3
20260502053003 14 44 3.2 6.4 0.00 0.00 0.00 64 1004.2
20260502052553 14 14 0.0 4.8 0.00 0.00 0.00 64 1004.2
20260502052041 14 14 1.6 4.8 0.00 0.00 0.00 64 1004.3
20260502051502 14 169 1.6 4.8 0.00 0.00 0.00 64 1004.2
20260502051051 14 165 0.0 3.2 0.00 0.00 0.00 63 1004.4
20260502050539 14 165 1.6 3.2 0.00 0.00 0.00 63 1004.3
20260502050007 15 165 0.0 6.4 0.00 0.00 0.00 62 1004.3
20260502045559 15 269 0.0 6.4 0.00 0.00 0.00 61 1004.2
20260502045046 15 40 0.0 4.8 0.00 0.00 0.00 60 1004.2
20260502044507 15 11 1.6 6.4 0.00 0.00 0.00 59 1004.1
20260502044055 15 11 1.6 6.4 0.00 0.00 0.00 59 1004.1
20260502043543 15 57 0.0 8.0 0.00 0.00 0.00 59 1004.2
20260502043007 15 38 1.6 8.0 0.00 0.00 0.00 58 1003.9
20260502042554 15 67 0.0 8.0 0.00 0.00 0.00 58 1003.9
20260502042043 15 290 3.2 9.7 0.00 0.00 0.00 59 1003.8
20260502041503 15 291 3.2 9.7 0.00 0.00 0.00 60 1003.9
20260502041053 16 54 1.6 9.7 0.00 0.00 0.00 60 1003.9
20260502040539 16 59 1.6 12.9 0.00 0.00 0.00 60 1003.7
20260502040101 16 298 3.2 6.4 0.00 0.00 0.00 61 1003.6
20260502035550 16 328 3.2 9.7 0.00 0.00 0.00 61 1003.6
20260502035041 16 40 1.6 11.3 0.00 0.00 0.00 62 1003.5
20260502034600 16 355 1.6 4.8 0.00 0.00 0.00 61 1003.6
20260502034048 16 5 0.0 6.4 0.00 0.00 0.00 62 1003.6
20260502033537 16 46 0.0 6.4 0.00 0.00 0.00 62 1003.5
20260502033105 17 355 1.6 6.4 0.00 0.00 0.00 62 1003.4
20260502032548 17 313 1.6 12.9 0.00 0.00 0.00 61 1003.3
20260502032037 17 22 3.2 12.9 0.00 0.00 0.00 62 1003.3
20260502031604 17 65 3.2 9.7 0.00 0.00 0.00 61 1003.2
20260502031049 17 5 3.2 12.9 0.00 0.00 0.00 61 1003.1
20260502030538 17 22 6.4 12.9 0.00 0.00 0.00 61 1002.9
20260502025546 17 267 4.8 14.5 0.00 0.00 0.00 61 1002.8
20260502025034 18 275 1.6 12.9 0.00 0.00 0.00 60 1002.8
20260502024557 18 5 3.2 14.5 0.00 0.00 0.00 60 1002.7
20260502024047 18 146 3.2 14.5 0.00 0.00 0.00 60 1002.6
20260502023534 18 32 1.6 6.4 0.00 0.00 0.00 60 1002.5
20260502023110 18 345 1.6 8.0 0.00 0.00 0.00 60 1002.4
20260502022546 19 36 3.2 8.0 0.00 0.00 0.00 59 1002.4
20260502022032 19 14 1.6 12.9 0.00 0.00 0.00 59 1002.3
20260502021502 19 355 4.8 12.9 0.00 0.00 0.00 58 1002.3
20260502021055 19 13 4.8 12.9 0.00 0.00 0.00 57 1002.2
20260502020541 20 291 3.2 12.9 0.00 0.00 0.00 57 1002.2
20260502020104 20 23 3.2 12.9 0.00 0.00 0.00 57 1002.1
20260502015551 20 88 3.2 14.5 0.00 0.00 0.00 56 1002.1
20260502015038 20 309 4.8 22.5 0.00 0.00 0.00 55 1002.1
20260502014610 20 96 3.2 12.9 0.00 0.00 0.00 56 1002.1
20260502014053 21 329 3.2 17.7 0.00 0.00 0.00 55 1002.1
20260502013535 21 311 4.8 17.7 0.00 0.00 0.00 55 1002.0
20260502013004 21 230 1.6 8.0 0.00 0.00 0.00 57 1001.9
20260502012555 21 90 3.2 8.0 0.00 0.00 0.00 58 1001.8
20260502012044 21 42 1.6 6.4 0.00 0.00 0.00 57 1001.8
20260502011505 21 222 1.6 8.0 0.00 0.00 0.00 57 1001.9
20260502011055 22 254 1.6 8.0 0.00 0.00 0.00 55 1001.7
20260502010547 22 347 0.0 0.0 0.00 0.00 0.00 53 1001.8
20260502010003 22 347 0.0 1.6 0.00 0.00 0.00 48 1001.7
20260502005552 22 347 0.0 4.8 0.00 0.00 0.00 47 1001.7
20260502005037 22 347 1.6 8.0 0.00 0.00 0.00 47 1001.7
20260502004612 22 26 3.2 8.0 0.00 0.00 0.00 51 1001.7
20260502004048 22 283 1.6 8.0 0.00 0.00 0.00 54 1001.7
20260502003540 22 80 4.8 8.0 0.00 0.00 0.00 52 1001.7
20260502003006 22 297 1.6 4.8 0.00 0.00 0.00 50 1001.7
20260502002557 22 69 0.0 6.4 0.00 0.00 0.00 54 1001.8
20260502002046 22 322 3.2 6.4 0.00 0.00 0.00 53 1001.7
20260502001503 22 289 1.6 8.0 0.00 0.00 0.00 49 1001.7
20260502001054 22 290 3.2 8.0 0.00 0.00 0.00 53 1001.7
20260502000542 22 281 3.2 9.7 0.00 0.00 0.00 54 1001.7
20260502000105 22 307 1.6 8.0 0.00 0.00 0.00 51 1001.7
20260501235552 22 318 0.0 8.0 0.00 0.00 0.00 52 1001.7
20260501235041 22 220 3.2 8.0 0.00 0.00 0.00 51 1001.7
20260501234501 22 286 3.2 9.7 0.00 0.00 0.00 53 1001.7
20260501234051 22 308 0.0 9.7 0.00 0.00 0.00 50 1001.7
20260501233541 22 311 3.2 9.7 0.00 0.00 0.00 50 1001.7
20260501233002 22 327 1.6 9.7 0.00 0.00 0.00 50 1001.7
20260501232553 22 5 3.2 9.7 0.00 0.00 0.00 51 1001.8
20260501232040 22 30 4.8 12.9 0.00 0.00 0.00 51 1001.8
20260501231604 22 289 6.4 12.9 0.00 0.00 0.00 52 1001.9
20260501231051 22 63 6.4 11.3 0.00 0.00 0.00 52 1001.9
20260501230539 22 28 4.8 9.7 0.00 0.00 0.00 52 1002.0
20260501230100 22 360 1.6 8.0 0.00 0.00 0.00 50 1002.1
20260501225549 22 63 3.2 9.7 0.00 0.00 0.00 51 1002.2
20260501225035 22 333 3.2 9.7 0.00 0.00 0.00 49 1002.3
20260501224601 22 5 4.8 8.0 0.00 0.00 0.00 52 1002.4
20260501224046 22 286 3.2 9.7 0.00 0.00 0.00 51 1002.5
20260501223534 22 218 1.6 6.4 0.00 0.00 0.00 49 1002.5
20260501223109 22 244 0.0 8.0 0.00 0.00 0.00 50 1002.5
20260501222544 22 40 4.8 9.7 0.00 0.00 0.00 51 1002.5
20260501222034 22 355 4.8 9.7 0.00 0.00 0.00 52 1002.7
20260501221606 22 84 4.8 9.7 0.00 0.00 0.00 52 1002.7
20260501221045 22 38 3.2 9.7 0.00 0.00 0.00 50 1002.7
20260501220532 22 344 4.8 9.7 0.00 0.00 0.00 51 1002.8
20260501220054 22 5 4.8 9.7 0.00 0.00 0.00 48 1002.8
20260501215542 22 309 4.8 12.9 0.00 0.00 0.00 53 1002.9
20260501215031 22 35 6.4 12.9 0.00 0.00 0.00 50 1002.9
20260501214500 22 80 4.8 9.7 0.00 0.00 0.00 49 1002.9
20260501214051 22 55 3.2 12.9 0.00 0.00 0.00 49 1002.9
20260501213539 22 69 4.8 12.9 0.00 0.00 0.00 51 1003.0
20260501213114 22 98 4.8 9.7 0.00 0.00 0.00 52 1003.0
20260501212550 21 84 3.2 9.7 0.00 0.00 0.00 52 1003.0
20260501212038 21 5 3.2 9.7 0.00 0.00 0.00 59 1003.0
20260501211604 21 35 1.6 4.8 0.00 0.00 0.00 56 1003.0
20260501211051 21 96 1.6 8.0 0.00 0.00 0.00 60 1003.2
20260501210538 21 53 1.6 8.0 0.00 0.00 0.00 58 1003.2
20260501210005 21 54 1.6 8.0 0.00 0.00 0.00 59 1003.3
20260501205557 21 169 4.8 8.0 0.00 0.00 0.00 60 1003.4
20260501205044 21 236 1.6 6.4 0.00 0.00 0.00 60 1003.6
20260501204503 21 51 3.2 8.0 0.00 0.00 0.00 61 1003.6
20260501204054 20 355 3.2 8.0 0.00 0.00 0.00 59 1003.7
20260501203541 20 74 1.6 11.3 0.00 0.00 0.00 61 1003.8
20260501203110 20 86 3.2 12.9 0.00 0.00 0.00 60 1003.8
20260501202551 20 45 4.8 9.7 0.00 0.00 0.00 61 1003.9
20260501202040 20 145 1.6 8.0 0.00 0.00 0.00 62 1003.9
20260501201612 20 126 4.8 9.7 0.00 0.00 0.00 62 1003.9
20260501201053 20 5 3.2 9.7 0.00 0.00 0.00 61 1004.0
20260501200542 20 317 3.2 14.5 0.00 0.00 0.00 62 1004.0
20260501195548 20 299 3.2 8.0 0.00 0.00 0.00 62 1004.1
20260501195037 20 78 3.2 9.7 0.00 0.00 0.00 61 1004.1
20260501194605 20 17 3.2 9.7 0.00 0.00 0.00 65 1004.1
20260501194049 20 194 4.8 11.3 0.00 0.00 0.00 62 1004.2
20260501193540 20 257 3.2 9.7 0.00 0.00 0.00 61 1004.2
20260501193007 19 317 4.8 9.7 0.00 0.00 0.00 63 1004.1
20260501192558 19 81 3.2 9.7 0.00 0.00 0.00 63 1004.2
20260501192047 19 67 1.6 9.7 0.00 0.00 0.00 62 1004.1
20260501191505 19 130 3.2 9.7 0.00 0.00 0.00 62 1004.3
20260501191057 19 81 3.2 8.0 0.00 0.00 0.00 63 1004.3
20260501190545 20 169 3.2 8.0 0.00 0.00 0.00 63 1004.1
20260501190003 19 313 3.2 9.7 0.00 0.00 0.00 63 1004.2
20260501185553 18 290 1.6 9.7 0.00 0.00 0.00 65 1004.3
20260501185042 18 48 4.8 9.7 0.00 0.00 0.00 65 1004.3
20260501184504 18 41 4.8 8.0 0.00 0.00 0.00 65 1004.3
20260501184056 18 49 1.6 9.7 0.00 0.00 0.00 65 1004.3
20260501183542 17 336 4.8 11.3 0.00 0.00 0.00 65 1004.3
20260501183003 17 333 1.6 9.7 0.00 0.00 0.00 66 1004.4
20260501182553 17 355 4.8 9.7 0.00 0.00 0.00 65 1004.4
20260501182041 18 355 3.2 9.7 0.00 0.00 0.00 65 1004.4
20260501181502 18 25 1.6 8.0 0.00 0.00 0.00 66 1004.5
20260501181053 17 42 4.8 8.0 0.00 0.00 0.00 68 1004.5
20260501180542 17 173 3.2 8.0 0.00 0.00 0.00 67 1004.5
20260501180003 17 34 3.2 8.0 0.00 0.00 0.00 66 1004.6
20260501175552 17 106 1.6 8.0 0.00 0.00 0.00 66 1004.5
20260501175038 17 64 3.2 9.7 0.00 0.00 0.00 68 1004.5
20260501174602 17 61 1.6 9.7 0.00 0.00 0.00 66 1004.6
20260501174050 17 136 3.2 8.0 0.00 0.00 0.00 69 1004.5
20260501173537 16 208 1.6 8.0 0.00 0.00 0.00 69 1004.6
20260501173116 16 28 3.2 8.0 0.00 0.00 0.00 69 1004.6
20260501172549 16 83 1.6 6.4 0.00 0.00 0.00 69 1004.6
20260501172039 16 54 1.6 6.4 0.00 0.00 0.00 72 1004.6
20260501171509 16 107 1.6 6.4 0.00 0.00 0.00 71 1004.6